Weather in Pruzhany

Belarus     52°33′18″N   24°27′45″E
temp.,
°C
wind,
m/s
gust,
m/s
humid.,
%
clouds,
%
prec.,
mm/h
press.,
hPa
HPBL,
m
16 april, fri
fri1600:00+5n4894100 0.2 1015398
03:00+5n5996100 0.8 1013413
06:00+5n5997100 3.3 1012494
09:00+6nne5996100 3.9 1011446
12:00+10ne5782100 0.3 1011758
15:00+11ne5777100 1.8 1011920
18:00+11ne4782100 2.4 1012564
21:00+8ne1189100 4.2 101314
17 april, sat
sat1700:00+7e339478 0.6 101456
03:00+6ene239786 0.6 101548
06:00+7ene129686 0.4 101643
09:00+7ese2394100 0.6 1017252
12:00+11se347089 0.2 1018923
15:00+13se235972 0.4 10181411
18:00+12se236828 0.8 1018456
21:00+8sse237887 0.8 101935
18 april, sun
sun1800:00+7ssw008399 0.0 102010
03:00+6nw228699 0.0 102015
06:00+5nw229284 0.0 101919
09:00+8n2387100 0.1 1019234
12:00+12ne237870 0.1 1018748
15:00+14ne5664100 0.5 10181338
18:00+11e5978100 0.1 1019621
21:00+8ene398117 0.1 1020200
19 april, mon
mon1900:00+7ene498051 0.0 1020293
03:00+5e34897 0.0 102060
06:00+4ene35925 0.0 102079
09:00+8ene46775 0.0 1020384
12:00+11ene455975 0.0 10181453
15:00+12ne4554100 0.1 10171405
18:00+9ene5773100 0.0 1017711
21:00+8ene587316 0.1 1016580
20 april, tue
tue2000:00+7ne2676100 0.0 1016270
03:00+6n4788100 0.1 1014252
06:00+6nne4990100 0.1 1012360
09:00+8nne697728 0.3 1011828
12:00+8n787157 0.2 10101016
15:00+8n7971100 0.3 10091231
18:00+8nnw8107877 0.1 1008843
21:00+7nnw598498 0.1 1008821